�N����,����,�~����,�C��,���x,�C��,����,���ϕ���,�ő�u�ԕ���,�ő厞����,���˗�,�I�_���x,�n�����x,�ő啗���N��,DTYPE
"19/12/06","00:10",0.0,4.8,80.8,1021.3,303.7,1.3,2.0,333.3,0.00,1.8,9.1,"00:06:58",1
"19/12/06","00:20",0.0,4.7,81.3,1021.1,305.4,1.1,1.7,319.6,0.00,1.8,9.2,"00:19:36",1
"19/12/06","00:30",0.0,4.5,82.0,1021.1,318.1,1.3,2.0,337.2,0.00,1.7,9.0,"00:29:02",1
"19/12/06","00:40",0.0,4.6,82.8,1020.6,323.1,1.7,2.8,323.7,0.00,2.0,9.3,"00:32:06",1
"19/12/06","00:50",0.0,4.5,83.5,1021.1,308.9,1.6,2.4,320.3,0.00,2.0,9.2,"00:41:04",1
"19/12/06","01:00",0.0,4.6,84.4,1021.1,306.8,1.7,2.9,324.2,0.00,2.2,9.1,"00:54:24",1
"19/12/06","01:10",0.0,4.9,84.8,1021.3,315.7,1.8,3.3,330.9,0.00,2.6,9.1,"01:07:44",1
"19/12/06","01:20",0.0,5.3,85.0,1020.8,322.0,2.5,4.7,335.8,0.00,3.0,9.1,"01:18:42",1
"19/12/06","01:30",0.0,5.4,84.9,1021.3,311.5,2.5,3.6,316.1,0.00,3.1,9.0,"01:21:12",1
"19/12/06","01:40",0.0,5.5,84.7,1021.8,301.3,1.8,2.8,317.5,0.00,3.2,8.8,"01:34:22",1
"19/12/06","01:50",0.0,5.5,84.4,1021.5,305.9,1.7,3.1,315.1,0.00,3.1,8.9,"01:47:32",1
"19/12/06","02:00",0.0,5.6,84.0,1020.8,296.3,1.8,3.2,328.2,0.00,3.2,9.1,"01:50:32",1
"19/12/06","02:10",0.0,5.6,83.3,1021.1,317.3,2.3,3.7,333.4,0.00,3.0,9.2,"02:08:08",1
"19/12/06","02:20",0.0,5.7,82.8,1021.1,317.7,2.6,4.7,320.1,0.00,3.0,8.9,"02:12:32",1
"19/12/06","02:30",0.0,5.7,82.4,1020.8,323.6,2.8,4.8,325.3,0.00,3.0,9.0,"02:27:12",1
"19/12/06","02:40",0.0,5.7,82.0,1020.8,319.9,2.8,4.7,326.0,0.00,2.9,9.2,"02:38:24",1
"19/12/06","02:50",0.0,5.7,81.6,1020.6,317.4,2.7,4.5,317.6,0.00,2.8,9.2,"02:42:08",1
"19/12/06","03:00",0.0,5.6,81.4,1020.6,304.8,1.8,3.2,340.3,0.00,2.7,9.2,"02:58:06",1
"19/12/06","03:10",0.0,5.6,81.2,1021.1,296.2,1.7,3.3,299.1,0.00,2.7,9.0,"03:08:34",1
"19/12/06","03:20",0.0,5.9,80.6,1021.3,301.2,2.1,3.5,326.3,0.00,2.9,9.2,"03:13:22",1
"19/12/06","03:30",0.0,5.9,79.9,1020.4,308.9,2.3,4.7,329.5,0.00,2.7,9.1,"03:28:16",1
"19/12/06","03:40",0.0,5.9,79.4,1021.1,318.6,2.6,4.0,319.1,0.00,2.7,9.1,"03:32:00",1
"19/12/06","03:50",0.0,5.8,79.4,1021.1,305.8,2.2,4.3,315.4,0.00,2.6,9.1,"03:40:56",1
"19/12/06","04:00",0.0,5.8,79.6,1021.1,307.7,2.2,4.2,326.3,0.00,2.6,9.1,"03:56:34",1
"19/12/06","04:10",0.0,5.7,79.8,1021.3,317.6,2.5,4.5,340.6,0.00,2.5,9.1,"04:03:22",1
"19/12/06","04:20",0.0,5.8,79.8,1021.1,314.4,2.5,4.4,324.1,0.00,2.6,9.0,"04:12:24",1
"19/12/06","04:30",0.0,5.7,79.9,1020.4,312.3,2.5,4.9,310.0,0.00,2.5,9.1,"04:23:14",1
"19/12/06","04:40",0.0,5.5,80.0,1020.8,309.2,2.2,3.5,311.3,0.00,2.4,9.0,"04:33:26",1
"19/12/06","04:50",0.0,5.5,80.4,1020.4,316.9,2.5,3.5,324.9,0.00,2.4,9.2,"04:41:24",1
"19/12/06","05:00",0.0,5.4,80.7,1020.8,310.5,2.1,3.6,320.7,0.00,2.4,8.7,"04:53:02",1
"19/12/06","05:10",0.0,5.3,80.9,1020.8,303.0,2.0,4.4,320.3,0.00,2.3,8.8,"05:06:18",1
"19/12/06","05:20",0.0,5.3,81.1,1020.8,311.9,2.2,4.4,313.5,0.00,2.4,8.9,"05:16:16",1
"19/12/06","05:30",0.0,5.3,81.1,1020.8,325.9,2.3,4.1,328.3,0.00,2.4,9.0,"05:26:50",1
"19/12/06","05:40",0.0,5.3,81.2,1020.6,304.9,2.3,5.6,325.5,0.00,2.4,9.0,"05:33:04",1
"19/12/06","05:50",0.0,5.4,81.4,1020.8,301.8,2.2,4.7,287.1,0.00,2.5,8.9,"05:40:42",1
"19/12/06","06:00",0.0,5.4,81.6,1021.5,293.9,2.0,3.5,309.4,0.00,2.5,9.0,"05:58:06",1
"19/12/06","06:10",0.0,5.4,81.9,1022.0,295.5,2.2,4.3,336.4,0.00,2.6,9.0,"06:07:34",1
"19/12/06","06:20",0.0,5.4,82.0,1022.0,286.7,2.1,3.6,274.5,0.00,2.6,8.9,"06:16:34",1
"19/12/06","06:30",0.0,5.4,82.1,1021.8,292.9,2.1,3.7,292.9,0.00,2.6,8.7,"06:27:32",1
"19/12/06","06:40",0.0,5.4,82.3,1022.3,293.2,2.2,4.0,330.9,0.00,2.7,8.9,"06:33:20",1
"19/12/06","06:50",0.0,5.3,82.5,1022.5,283.3,1.8,3.6,301.2,0.00,2.6,8.7,"06:48:10",1
"19/12/06","07:00",0.0,5.3,82.6,1022.3,308.7,2.5,5.8,324.9,0.00,2.6,8.8,"06:55:52",1
"19/12/06","07:10",0.0,5.0,82.8,1021.8,311.7,2.6,5.2,344.8,0.00,2.4,8.8,"07:07:34",1
"19/12/06","07:20",0.0,4.9,83.2,1022.7,300.0,2.8,4.8,322.7,0.00,2.3,8.7,"07:18:14",1
"19/12/06","07:30",0.0,4.8,83.5,1021.8,304.6,2.5,4.3,338.6,0.00,2.3,8.7,"07:25:58",1
"19/12/06","07:40",0.0,4.8,83.8,1021.8,295.7,2.1,3.9,327.2,0.00,2.3,8.6,"07:30:50",1
"19/12/06","07:50",0.0,4.9,83.9,1022.0,291.5,2.2,4.4,304.9,0.00,2.5,8.9,"07:48:16",1
"19/12/06","08:00",0.0,5.0,83.8,1022.0,300.6,2.5,4.3,315.9,0.00,2.5,8.7,"07:58:28",1
"19/12/06","08:10",0.0,5.2,83.5,1022.0,314.7,2.5,4.5,328.6,0.00,2.7,8.7,"08:02:14",1
"19/12/06","08:20",0.0,5.2,83.2,1022.3,313.8,2.1,4.7,316.7,0.02,2.6,8.7,"08:13:58",1
"19/12/06","08:30",0.0,5.4,83.0,1022.7,301.3,2.1,5.0,304.9,0.02,2.8,8.6,"08:22:38",1
"19/12/06","08:40",0.0,5.7,82.8,1022.5,330.0,1.3,3.7,288.7,0.04,3.0,8.7,"08:32:16",1
"19/12/06","08:50",0.0,6.5,82.0,1023.0,333.4,1.1,2.8,337.9,0.09,3.7,8.7,"08:41:44",1
"19/12/06","09:00",0.0,6.9,80.4,1023.4,311.6,1.3,2.6,313.3,0.07,3.8,8.8,"08:59:04",1
"19/12/06","09:10",0.0,6.7,79.4,1022.7,302.4,1.7,2.7,317.3,0.05,3.4,9.0,"09:06:48",1
"19/12/06","09:20",0.0,6.6,78.5,1023.7,298.7,1.7,2.5,322.7,0.05,3.2,8.7,"09:10:48",1
"19/12/06","09:30",0.0,6.7,78.0,1023.7,314.9,1.3,2.6,320.7,0.06,3.2,8.9,"09:21:20",1
"19/12/06","09:40",0.0,7.3,77.7,1023.9,286.8,0.7,1.2,301.3,0.16,3.7,8.8,"09:34:08",1
"19/12/06","09:50",0.0,7.8,75.6,1024.4,347.6,1.6,4.8,339.8,0.21,3.8,9.1,"09:49:28",1
"19/12/06","10:00",0.0,7.7,73.8,1023.9,321.6,2.1,4.3,316.6,0.14,3.4,9.1,"09:58:16",1
"19/12/06","10:10",0.0,7.5,72.5,1023.9,333.4,2.7,6.5,338.7,0.10,2.9,9.2,"10:00:56",1
"19/12/06","10:20",0.0,8.0,72.6,1023.9,332.3,2.2,3.7,340.5,0.20,3.4,9.4,"10:14:32",1
"19/12/06","10:30",0.0,8.3,70.8,1023.2,12.1,1.2,5.0,73.6,0.24,3.4,9.5,"10:29:04",1
"19/12/06","10:40",0.0,8.5,70.2,1023.2,1.6,1.0,3.5,335.1,0.24,3.4,9.7,"10:30:32",1
"19/12/06","10:50",0.0,8.4,68.6,1023.4,15.6,1.7,4.0,38.4,0.26,3.0,9.7,"10:45:48",1
"19/12/06","11:00",0.0,8.4,68.6,1023.2,357.6,2.8,5.0,346.2,0.27,3.0,9.7,"10:59:32",1
"19/12/06","11:10",0.0,8.2,69.2,1023.7,338.9,3.5,6.0,352.0,0.21,2.9,9.7,"11:09:04",1
"19/12/06","11:20",0.0,8.8,68.8,1023.4,335.5,2.6,4.5,338.9,0.29,3.4,10.0,"11:10:40",1
"19/12/06","11:30",0.0,8.5,68.4,1023.2,332.8,3.5,6.7,347.7,0.23,3.1,10.1,"11:25:52",1
"19/12/06","11:40",0.0,8.8,68.5,1023.2,332.1,3.4,6.7,352.5,0.36,3.4,10.2,"11:32:16",1
"19/12/06","11:50",0.0,8.3,68.8,1023.4,340.0,3.9,8.0,343.4,0.20,3.0,10.0,"11:42:08",1
"19/12/06","12:00",0.0,8.7,68.6,1023.0,341.3,3.5,6.2,351.9,0.38,3.3,10.3,"11:58:26",1
"19/12/06","12:10",0.0,8.6,67.6,1022.7,331.4,4.0,6.7,342.4,0.25,3.0,10.4,"12:07:38",1
"19/12/06","12:20",0.0,8.0,69.1,1022.5,344.3,3.2,7.3,344.7,0.16,2.7,10.5,"12:10:48",1
"19/12/06","12:30",0.0,8.1,70.6,1022.5,350.1,2.7,5.4,18.9,0.25,3.1,10.7,"12:22:56",1
"19/12/06","12:40",0.0,8.1,71.1,1022.3,347.2,3.0,7.7,337.7,0.21,3.2,10.7,"12:32:56",1
"19/12/06","12:50",0.0,7.9,71.1,1022.5,332.3,3.7,8.5,340.0,0.18,3.0,10.6,"12:46:00",1
"19/12/06","13:00",0.0,8.0,70.8,1022.0,339.8,2.8,7.4,49.2,0.21,3.1,10.5,"12:56:16",1
"19/12/06","13:10",0.0,8.3,70.2,1021.8,356.6,2.3,4.3,316.4,0.26,3.2,10.7,"13:01:12",1
"19/12/06","13:20",0.0,8.2,69.6,1022.0,329.2,3.0,6.7,320.3,0.18,3.0,10.7,"13:11:28",1
"19/12/06","13:30",0.0,8.2,69.0,1021.8,356.7,2.2,4.8,314.1,0.19,2.9,10.8,"13:20:08",1
"19/12/06","13:40",0.0,8.3,68.7,1021.8,339.0,2.6,7.3,328.4,0.20,2.9,10.7,"13:39:12",1
"19/12/06","13:50",0.0,8.8,67.3,1021.3,331.7,2.8,6.3,347.0,0.26,3.1,10.8,"13:40:32",1
"19/12/06","14:00",0.0,8.5,68.4,1021.5,339.5,3.1,7.3,333.2,0.22,3.1,10.7,"13:59:46",1
"19/12/06","14:10",0.0,8.3,68.7,1021.5,342.1,3.5,6.5,355.5,0.25,2.9,10.9,"14:00:48",1
"19/12/06","14:20",0.0,7.9,69.4,1021.5,330.5,3.9,6.4,358.6,0.14,2.7,10.8,"14:10:16",1
"19/12/06","14:30",0.0,7.8,70.6,1021.5,327.7,3.5,6.3,347.3,0.12,2.8,10.9,"14:20:48",1
"19/12/06","14:40",0.0,7.7,70.8,1021.5,333.2,3.9,6.3,340.2,0.14,2.8,11.0,"14:30:24",1
"19/12/06","14:50",0.0,7.8,70.7,1021.8,338.1,2.8,6.6,323.2,0.15,2.9,10.9,"14:41:52",1
"19/12/06","15:00",0.0,8.0,70.1,1021.5,322.4,3.4,7.1,349.4,0.18,2.9,10.8,"14:50:02",1
"19/12/06","15:10",0.0,7.7,69.8,1021.8,335.4,3.4,9.3,339.5,0.09,2.6,10.9,"15:08:26",1
"19/12/06","15:20",0.0,7.4,70.7,1021.8,339.4,3.6,7.0,345.1,0.07,2.5,11.0,"15:15:20",1
"19/12/06","15:30",0.0,7.6,71.8,1021.8,337.9,3.7,7.5,330.0,0.13,2.9,10.9,"15:23:28",1
"19/12/06","15:40",0.0,7.8,71.2,1021.8,335.2,3.5,7.0,343.2,0.13,3.0,11.0,"15:32:24",1
"19/12/06","15:50",0.0,7.5,71.4,1022.3,329.9,3.2,5.7,315.7,0.07,2.7,10.7,"15:49:04",1
"19/12/06","16:00",0.0,7.2,72.2,1022.0,335.6,3.2,5.2,334.1,0.05,2.6,10.5,"15:54:08",1
"19/12/06","16:10",0.0,7.5,72.3,1022.3,333.2,2.8,5.6,338.6,0.09,2.9,10.9,"16:01:52",1
"19/12/06","16:20",0.0,7.4,72.4,1022.0,327.6,2.7,5.6,347.0,0.05,2.8,10.5,"16:10:40",1
"19/12/06","16:30",0.0,6.9,72.8,1022.5,327.8,3.6,6.5,325.1,0.02,2.4,10.7,"16:21:46",1
"19/12/06","16:40",0.0,6.9,73.5,1022.0,325.5,2.5,4.5,339.6,0.02,2.5,10.7,"16:37:20",1
"19/12/06","16:50",0.0,6.6,74.1,1022.0,320.5,3.0,5.6,313.4,0.00,2.4,10.6,"16:44:16",1
"19/12/06","17:00",0.0,6.6,74.5,1022.3,314.5,1.7,2.5,317.2,0.00,2.4,10.6,"16:50:08",1
"19/12/06","17:10",0.0,6.5,74.8,1022.3,319.1,1.2,2.2,311.2,0.00,2.4,10.5,"17:07:44",1
"19/12/06","17:20",0.0,6.4,75.0,1022.0,304.3,1.1,1.6,298.4,0.00,2.3,10.2,"17:10:16",1
"19/12/06","17:30",0.0,6.2,75.6,1022.3,334.7,1.6,3.2,356.4,0.00,2.3,10.4,"17:27:52",1
"19/12/06","17:40",0.0,5.9,76.2,1022.3,325.5,2.2,3.4,15.7,0.00,2.1,10.5,"17:30:48",1
"19/12/06","17:50",0.0,5.8,77.0,1022.3,314.7,2.1,3.2,320.2,0.00,2.1,10.2,"17:49:12",1
"19/12/06","18:00",0.0,5.6,77.7,1022.0,321.9,2.1,3.1,337.3,0.00,2.1,10.3,"17:56:32",1
"19/12/06","18:10",0.0,5.4,78.5,1022.5,315.1,2.2,3.4,334.4,0.00,2.0,10.2,"18:01:44",1
"19/12/06","18:20",0.0,5.2,79.2,1022.7,323.2,2.2,4.0,311.1,0.00,1.9,10.1,"18:10:40",1
"19/12/06","18:30",0.0,5.2,79.9,1022.7,320.1,2.3,3.2,321.1,0.00,2.1,10.0,"18:22:42",1
"19/12/06","18:40",0.0,5.3,80.1,1023.0,319.4,2.5,4.5,340.5,0.00,2.2,9.9,"18:39:36",1
"19/12/06","18:50",0.0,5.3,80.3,1022.7,326.3,2.7,5.1,326.0,0.00,2.2,9.9,"18:44:08",1
"19/12/06","19:00",0.0,5.1,80.8,1022.3,326.6,2.3,3.6,336.1,0.00,2.1,9.8,"18:51:36",1
"19/12/06","19:10",0.0,5.0,81.4,1022.3,322.4,3.0,4.9,333.7,0.00,2.1,9.8,"19:07:06",1
"19/12/06","19:20",0.0,5.1,81.9,1022.5,323.6,2.1,3.7,321.2,0.00,2.3,9.7,"19:10:56",1
"19/12/06","19:30",0.0,5.0,82.3,1022.3,321.2,2.3,3.4,340.5,0.00,2.3,9.8,"19:27:10",1
"19/12/06","19:40",0.0,4.8,82.9,1022.3,319.5,2.2,3.2,325.1,0.00,2.2,9.7,"19:32:34",1
"19/12/06","19:50",0.0,4.7,83.5,1021.8,312.7,2.1,4.2,318.2,0.00,2.2,9.7,"19:41:20",1
"19/12/06","20:00",0.0,4.5,83.9,1022.3,286.1,1.1,1.8,272.6,0.00,2.1,9.6,"19:59:40",1
"19/12/06","20:10",0.0,4.3,84.3,1022.0,283.2,1.6,1.9,299.1,0.00,1.9,9.6,"20:09:58",1
"19/12/06","20:20",0.0,4.4,84.8,1022.5,298.9,1.8,3.2,314.3,0.00,2.1,9.3,"20:17:44",1
"19/12/06","20:30",0.0,4.6,85.2,1023.0,320.5,2.2,3.4,325.1,0.00,2.4,9.7,"20:24:50",1
"19/12/06","20:40",0.0,4.7,85.5,1022.5,315.9,2.5,3.9,339.1,0.00,2.5,9.5,"20:34:24",1
"19/12/06","20:50",0.0,4.6,85.7,1023.0,312.2,1.8,2.7,318.8,0.00,2.5,9.5,"20:45:38",1
"19/12/06","21:00",0.0,4.6,85.8,1022.7,299.8,2.1,3.4,319.7,0.00,2.5,9.4,"20:51:30",1
"19/12/06","21:10",0.0,4.7,86.0,1022.7,288.9,1.8,2.9,311.9,0.00,2.6,9.4,"21:02:34",1
"19/12/06","21:20",0.0,4.8,86.0,1022.0,319.3,2.7,4.1,313.7,0.00,2.7,9.4,"21:13:24",1
"19/12/06","21:30",0.0,4.8,86.0,1021.8,311.9,2.8,4.2,311.6,0.00,2.7,9.4,"21:27:10",1
"19/12/06","21:40",0.0,4.7,85.9,1021.8,303.6,2.3,3.6,318.3,0.00,2.6,9.2,"21:35:22",1
"19/12/06","21:50",0.0,4.6,86.0,1021.8,299.1,1.7,2.7,293.4,0.00,2.5,9.2,"21:46:14",1
"19/12/06","22:00",0.0,4.5,86.1,1021.5,320.2,2.0,2.8,336.3,0.00,2.4,9.2,"21:57:20",1
"19/12/06","22:10",0.0,4.5,86.3,1021.3,317.7,2.2,3.9,322.0,0.00,2.5,9.3,"22:09:04",1
"19/12/06","22:20",0.0,4.5,86.3,1021.3,318.0,2.3,3.3,323.1,0.00,2.5,9.3,"22:13:20",1
"19/12/06","22:30",0.0,4.5,86.4,1021.8,316.6,2.2,3.5,315.8,0.00,2.5,9.3,"22:25:04",1
"19/12/06","22:40",0.0,4.4,86.6,1022.0,320.6,2.0,3.3,331.3,0.00,2.4,9.2,"22:32:08",1
"19/12/06","22:50",0.0,4.3,86.8,1021.5,331.5,1.6,3.3,315.1,0.00,2.3,9.2,"22:47:28",1
"19/12/06","23:00",0.0,4.3,87.1,1022.0,324.4,2.0,3.4,318.6,0.00,2.4,9.1,"22:58:56",1
"19/12/06","23:10",0.0,4.4,87.5,1023.0,325.4,2.6,4.7,336.6,0.00,2.5,9.1,"23:06:32",1
"19/12/06","23:20",0.0,4.5,87.7,1022.5,322.9,2.5,3.6,336.5,0.00,2.7,9.2,"23:10:16",1
"19/12/06","23:30",0.0,4.5,88.0,1023.0,324.9,2.5,5.2,331.9,0.00,2.7,9.2,"23:25:44",1
"19/12/06","23:40",0.0,4.5,88.2,1022.7,320.1,1.7,2.8,331.1,0.00,2.8,9.2,"23:32:56",1
"19/12/06","23:50",0.0,4.5,88.3,1022.7,313.9,1.8,2.8,339.8,0.00,2.8,9.0,"23:40:24",1
"19/12/06","24:00",0.0,4.3,88.5,1022.3,321.8,1.7,3.1,334.5,0.00,2.6,9.2,"23:59:20",1
